Location: Br�znic
(45.9167°N, 22.6500°E)
Time: 20:53:44
(UTC+00:00)

Cosmos 1689 Rocket - Pass Details

Date: 03 March 2021
Orbit: 350 x 361 km, 97.5° (Epoch: 13 April)

Event Time Altitude Azimuth Distance (km) Brightness Sun altitude
Rises 17:24:15 0° 12° (NNE) 2,208 5.8 -12.2°
Reaches altitude 10° 17:26:12 10° 11° (N) 1,359 4.8 -12.5°
Maximum altitude 17:29:05 83° 285° (WNW) 373 2.0 -13.0°
Drops below altitude 10° 17:31:58 10° 196° (SSW) 1,353 5.0 -13.5°
Sets 17:33:53 0° 196° (SSW) 2,198 6.0 -13.8°
